Temperature
18 18 19 19 19 19 20 22 25 26 26 26 26 25 25 25 24 21 21 21 20 21 21 19 18 17 16 16 16 16 16 15 15 14 14 13 13 13 13 13 13 13 13 13 13 13 13 13 13
18 18 19 20 19 19 21 23 25 26 26 25 25 25 25 26 23 21 21 20 20 21 21 19 18 17 16 16 16 16 16 15 15 14 13 13 13 13 13 13 13 14 14 13 13 13 13 13 13
17 18 19 19 19 19 21 25 26 26 25 24 25 26 26 25 23 21 21 20 19 20 20 20 18 17 16 16 16 16 16 15 15 14 13 13 13 13 13 14 14 14 14 14 14 13 13 13 13
16 18 19 19 19 21 22 24 26 25 25 25 25 26 25 23 23 22 21 19 19 19 19 19 18 17 16 16 16 16 16 15 14 14 13 13 13 13 13 14 14 14 15 14 14 14 14 14 14
16 18 18 18 19 22 23 25 25 25 24 25 25 25 24 23 22 21 20 19 18 18 19 19 18 17 16 16 16 16 16 15 14 14 13 13 13 13 13 14 14 14 15 14 14 14 14 14 14
17 19 18 18 20 22 23 25 25 24 24 25 25 24 23 22 21 21 20 19 19 18 18 18 17 17 16 16 16 16 16 16 15 14 13 13 13 13 13 14 14 14 15 14 14 14 14 14 14
17 18 18 19 20 22 24 25 24 23 23 25 25 24 23 22 21 20 20 20 19 18 18 18 17 17 16 16 16 15 16 15 15 14 14 13 13 13 13 14 14 14 14 14 14 14 14 14 14
17 18 18 19 20 21 24 25 24 24 23 24 24 24 23 21 20 20 20 19 19 18 17 18 17 17 16 16 16 15 15 15 15 15 14 14 13 13 13 14 14 14 14 14 14 14 14 14 13
16 16 17 19 20 21 24 24 24 23 23 23 23 23 21 20 20 20 19 19 19 18 17 17 17 16 16 16 15 15 15 15 15 15 15 14 14 13 13 14 14 14 14 14 14 13 13 13 13
16 15 17 20 21 21 23 23 23 22 22 22 23 22 21 20 20 19 19 19 18 18 17 16 16 16 16 15 15 15 15 15 15 15 15 14 13 13 13 14 14 14 14 13 13 13 13 13 12
16 16 18 19 21 20 20 21 21 21 20 22 22 22 21 20 20 20 19 19 19 18 18 17 16 16 15 15 15 15 15 15 15 14 15 14 13 13 13 13 13 13 13 13 13 12 12 12 12
16 17 18 19 19 18 18 19 19 20 20 21 22 22 21 20 20 20 20 20 20 19 18 17 17 16 16 15 15 15 15 14 14 14 14 14 13 13 13 13 13 13 13 12 12 12 12 12 13
16 17 18 18 18 17 17 17 17 18 19 20 20 20 20 20 20 20 20 20 20 20 19 18 17 17 16 15 15 15 15 15 14 14 14 13 13 13 13 13 12 12 12 12 12 12 12 12 13
16 16 17 17 17 17 16 16 16 17 17 18 18 19 19 19 19 20 20 20 20 20 19 19 18 17 16 16 15 15 15 14 14 14 14 13 13 13 13 12 12 12 12 12 12 12 12 13 13
15 14 15 16 16 16 16 15 16 16 17 17 18 18 18 19 19 19 19 20 20 20 20 19 19 18 17 16 16 15 15 15 14 14 14 13 13 13 13 13 12 12 12 12 12 12 12 13 13
14 13 13 16 16 16 15 13 16 18 18 17 17 18 18 18 18 19 19 19 20 20 20 19 19 18 17 17 16 16 15 15 14 14 14 13 13 13 13 13 12 12 12 12 12 12 12 12 12
13 12 14 16 16 16 15 14 16 18 18 18 18 18 18 18 18 18 19 19 19 19 19 19 19 18 18 17 16 16 15 15 14 14 14 13 13 13 13 13 12 12 12 12 12 12 12 12 12
13 13 15 16 17 16 14 14 16 17 17 17 17 18 18 18 18 18 19 19 19 19 19 19 19 19 18 17 16 15 15 15 14 14 13 13 13 13 13 13 12 12 12 12 12 12 12 12 12
13 13 13 15 16 15 14 14 15 16 16 16 17 17 17 17 18 18 18 18 19 19 19 19 19 19 18 17 16 16 15 15 14 14 13 13 13 13 13 13 12 12 12 12 12 12 11 11 11
12 12 12 13 15 14 13 13 14 15 15 16 16 17 17 17 17 17 18 18 18 18 18 19 19 18 18 18 17 17 15 14 14 14 13 13 13 13 13 13 12 12 12 11 11 11 11 11 11
11 11 11 12 12 12 12 12 14 16 16 16 16 17 17 17 17 17 17 17 17 18 18 18 18 18 17 17 16 15 15 14 14 13 13 13 13 13 13 12 12 12 11 11 11 11 11 10 10
11 12 12 11 10 10 12 10 13 16 16 16 17 17 17 17 17 17 17 17 17 17 17 17 17 17 17 16 16 16 16 15 14 14 13 13 13 12 12 12 12 11 11 11 11 10 10 10 9
11 11 11 10 10 8 10 9 11 15 15 16 16 18 17 17 17 17 17 17 17 17 17 17 17 17 17 16 16 16 16 16 15 14 13 12 12 12 12 11 11 11 10 10 10 10 10 9 9
11 10 10 9 8 7 9 10 11 15 17 17 17 18 17 17 16 16 16 16 16 16 16 16 16 16 16 15 15 15 15 15 15 14 12 12 12 12 11 11 10 10 10 10 10 9 9 9 8
10 8 8 8 7 7 11 11 12 16 17 17 17 17 17 16 16 15 15 15 15 15 15 15 16 16 15 15 14 13 13 15 15 15 13 12 12 11 11 10 10 9 9 9 9 9 8 8 7
9 8 8 8 9 11 13 12 14 16 17 17 17 16 16 15 15 14 14 14 14 14 15 15 15 15 14 13 13 12 12 13 14 13 13 12 11 11 10 9 9 9 9 8 8 8 7 7 6
8 8 9 8 8 7 9 12 14 16 16 16 16 16 15 15 14 14 13 13 13 14 14 14 14 14 13 12 12 11 11 12 12 12 11 11 11 10 9 9 8 8 8 8 7 7 7 6 5
9 9 7 6 6 7 9 12 13 15 14 14 14 14 14 14 13 13 13 12 13 13 13 13 13 13 12 12 11 10 11 11 11 11 11 10 10 9 8 8 8 8 7 7 7 6 5 5 4
8 8 8 7 7 7 7 11 15 14 14 13 13 14 13 13 12 12 12 12 12 12 12 12 12 12 11 10 10 10 10 10 10 10 10 10 9 8 8 8 7 7 7 6 6 5 5 4 3
9 8 7 6 7 7 7 9 14 13 13 13 12 12 12 11 11 11 11 11 11 11 11 11 11 11 10 10 9 9 9 9 9 9 9 8 8 7 7 7 7 6 6 5 5 4 4 3 2
Wind_Speed
14 16 10 4 4 6 11 12 10 1 3 5 8 6 10 8 6 8 6 12 20 19 20 21 21 20 19 17 16 15 13 13 12 13 13 13 12 12 11 10 10 10 11 11 13 14 15 15 14
11 12 6 4 5 8 11 15 8 3 3 8 5 3 7 2 9 9 8 14 19 19 20 20 21 20 19 17 16 14 13 12 12 13 13 13 13 12 11 11 11 11 12 13 14 14 14 13 12
8 11 5 4 7 11 11 5 2 6 6 1 5 7 7 3 9 8 9 14 17 17 18 22 22 21 19 17 15 14 13 12 13 13 13 13 13 12 12 11 11 11 12 12 12 12 11 10 9
6 5 5 8 13 14 15 11 2 6 3 5 6 5 3 7 5 10 12 13 16 16 18 23 22 21 19 18 16 14 13 13 13 13 13 12 12 12 12 12 12 11 11 11 11 10 9 8 7
5 4 9 12 17 15 14 9 4 2 4 6 5 7 5 7 12 14 10 12 14 16 18 21 23 21 20 18 16 15 14 13 13 13 12 11 11 12 12 12 11 10 10 9 9 8 7 6 5
5 5 8 13 16 15 15 10 5 4 7 5 3 8 4 9 11 11 9 9 13 16 17 19 21 22 20 18 17 15 14 14 13 12 11 10 10 11 12 12 10 9 8 8 7 6 6 5 4
7 7 12 14 14 13 14 10 8 7 9 7 4 6 5 8 10 11 10 8 12 16 16 15 17 19 20 19 18 16 15 14 13 12 10 10 10 11 12 12 10 8 7 6 6 5 5 4 3
7 5 12 15 15 13 11 7 8 7 8 7 2 3 4 7 8 10 9 8 11 14 16 14 15 16 16 17 18 17 15 14 13 12 12 11 11 12 13 13 10 8 7 6 5 5 4 3 2
6 7 12 12 12 11 12 6 5 4 5 8 2 2 8 7 8 8 6 5 8 11 14 15 14 14 16 16 17 18 16 15 14 13 13 12 12 13 13 13 11 9 7 6 5 4 3 3 3
6 8 13 10 10 9 9 5 2 5 8 9 7 4 9 8 8 9 8 7 8 8 11 13 14 13 13 14 15 14 14 14 14 14 14 12 12 12 14 15 13 11 9 7 6 5 4 4 4
7 8 10 13 12 8 9 8 3 6 8 9 10 9 9 8 7 8 10 11 11 10 9 10 13 13 12 8 12 11 12 13 14 16 17 14 9 12 13 11 10 10 10 8 7 6 2 3 4
10 10 11 11 6 5 7 9 9 9 9 9 8 2 4 6 7 8 8 9 12 14 13 10 11 12 12 9 8 8 7 9 8 12 17 11 6 6 8 7 10 10 8 6 5 3 5 4 5
14 12 10 8 7 6 7 9 11 13 12 12 11 8 5 5 6 7 8 8 7 11 15 13 10 12 12 11 9 8 7 7 9 10 13 12 5 5 4 4 6 7 8 6 4 4 5 5 6
5 8 11 10 7 7 10 12 13 12 12 12 13 13 10 9 10 10 9 9 8 8 12 14 13 11 11 10 9 8 7 8 10 9 11 13 10 5 4 4 4 5 7 7 6 5 4 4 4
6 7 9 11 11 8 9 14 17 18 16 16 15 13 13 12 12 12 12 10 9 8 9 12 14 13 12 12 11 9 7 9 6 9 13 13 12 9 6 5 5 6 9 8 7 5 5 3 2
6 6 7 9 14 13 10 12 11 12 16 18 16 14 13 13 14 14 13 11 10 9 8 11 13 13 13 11 11 9 7 8 7 10 12 14 13 13 8 6 5 8 9 6 4 3 4 4 3
7 7 9 8 9 7 10 9 9 8 6 9 11 12 12 13 14 14 14 13 11 11 10 10 11 12 12 11 10 9 8 8 7 9 9 12 13 14 10 6 6 9 6 4 5 5 4 3 3
5 8 9 8 6 7 10 11 10 11 11 11 11 11 11 12 13 13 13 13 12 11 11 11 12 13 11 10 8 7 7 7 6 7 8 12 12 15 12 7 7 9 6 6 5 5 4 3 2
7 7 8 7 8 6 10 15 14 13 15 16 15 14 15 15 13 12 12 12 11 11 11 11 12 13 11 10 10 10 9 6 5 5 9 12 14 15 11 8 7 7 6 6 6 5 5 3 3
8 8 9 9 7 8 12 19 17 19 20 19 18 17 16 15 14 13 13 12 12 12 11 10 10 12 13 11 11 8 7 5 4 5 7 12 13 14 12 10 8 8 7 7 6 5 4 2 3
8 9 8 9 11 9 12 14 13 14 19 19 18 17 16 16 14 13 13 13 12 13 12 11 11 11 13 12 10 9 7 5 4 5 5 7 11 12 12 10 9 8 7 7 6 5 4 3 2
6 4 5 7 6 5 6 8 8 8 8 11 13 13 12 12 12 11 12 12 12 13 12 11 11 12 12 15 15 16 12 9 7 6 6 8 10 11 13 12 10 9 7 8 6 5 4 4 3
2 5 3 5 6 7 5 8 11 8 11 10 9 9 9 9 9 9 10 10 10 10 11 12 11 12 13 16 18 17 11 8 10 11 12 10 8 9 11 12 9 9 8 8 7 5 5 4 3
1 0 5 5 3 6 8 9 9 4 5 2 3 4 4 4 5 5 6 6 7 7 7 9 11 11 12 15 17 15 15 16 18 16 13 10 8 9 10 11 9 9 8 8 7 6 6 5 4
5 3 3 4 5 8 9 9 10 7 4 2 3 3 3 3 3 4 5 6 6 7 7 7 10 11 12 15 15 14 16 18 20 19 16 15 12 10 10 11 9 8 7 7 6 6 6 5 3
9 5 3 3 4 4 4 8 8 8 7 6 5 4 4 4 4 4 5 7 7 7 7 7 9 10 12 14 13 13 15 14 13 14 15 14 12 10 11 11 10 9 8 7 6 5 4 4 3
7 7 4 4 5 6 7 8 9 9 8 5 5 5 7 5 5 5 5 7 8 6 6 7 9 10 12 13 13 14 15 14 14 14 13 12 12 12 13 12 12 9 8 7 6 4 3 4 3
5 5 3 3 3 6 8 8 6 5 5 5 3 4 5 4 5 6 6 6 6 5 4 5 9 11 12 13 13 14 14 14 15 15 15 15 14 13 14 13 11 10 8 6 5 4 3 2 1
8 4 5 4 4 4 6 6 5 7 7 7 7 6 5 6 6 6 6 5 5 3 3 4 8 11 13 14 15 15 14 15 15 15 15 15 14 14 14 12 11 9 7 6 4 3 3 2 2
10 8 8 5 5 6 6 9 5 4 6 9 11 11 9 8 7 6 6 4 2 2 1 4 9 12 15 16 16 15 15 15 16 16 15 15 14 13 13 11 10 8 7 5 4 2 2 2 3
Wind_Direction
299 285 272 263 249 236 247 254 252 345 336 7 30 355 325 346 44 105 155 115 124 132 139 142 138 136 132 128 125 123 124 126 128 127 123 117 110 103 95 88 83 77 73 68 68 80 86 88 90
288 284 276 244 241 244 247 241 230 180 57 32 8 284 278 294 98 113 120 120 129 133 141 143 139 137 134 130 127 125 127 129 131 131 129 122 114 105 96 92 89 85 82 79 78 78 82 83 83
265 264 258 231 228 241 262 282 128 116 64 4 253 225 243 56 99 118 123 131 132 136 143 140 142 139 136 133 131 130 130 131 132 134 131 126 118 110 100 99 96 93 90 88 86 85 84 83 81
251 226 237 243 244 238 251 278 90 109 165 215 263 245 128 55 67 109 127 139 136 139 136 143 143 142 140 138 136 135 135 135 135 135 134 132 126 117 110 108 104 100 96 92 91 90 87 84 81
243 238 225 235 243 251 260 264 106 149 214 199 211 271 98 88 95 115 143 148 142 139 135 147 145 145 144 143 143 143 143 141 139 139 139 139 134 126 121 119 113 108 101 95 92 90 88 84 77
219 226 228 233 241 242 250 250 160 207 253 231 206 264 109 125 120 134 145 153 143 134 136 148 149 149 150 150 150 150 151 151 150 149 146 145 142 136 133 129 123 116 107 98 93 89 88 83 72
237 231 239 244 247 243 239 221 176 198 248 247 211 254 129 121 119 133 143 166 138 134 139 148 155 155 156 156 157 158 159 159 160 158 147 138 138 143 144 139 133 124 113 104 96 91 91 86 73
248 257 243 244 255 260 262 221 167 196 248 272 275 275 76 107 123 131 146 158 137 139 145 155 161 163 163 163 163 163 164 164 163 157 143 139 144 150 153 146 140 131 122 114 105 99 101 109 114
263 244 241 238 247 261 272 265 163 175 265 285 263 98 97 112 124 125 138 145 141 148 152 161 165 168 168 169 170 166 166 168 163 155 156 161 167 162 159 150 144 141 137 130 126 131 154 170 184
220 240 240 254 270 285 286 285 178 202 218 252 257 171 127 139 156 157 164 168 156 164 164 165 169 171 170 172 167 171 171 172 175 173 175 193 197 166 149 147 150 152 151 148 158 178 213 214 193
211 237 256 261 278 316 329 329 302 265 243 233 230 204 161 160 183 191 187 183 177 181 186 174 173 172 172 167 167 174 176 175 194 183 182 200 169 134 140 150 155 163 166 172 182 196 197 83 81
242 241 248 264 307 336 316 313 303 273 262 277 293 310 159 173 201 214 219 208 184 178 183 187 179 173 175 170 174 173 175 175 190 182 179 186 155 156 164 165 171 172 165 156 149 131 97 61 57
236 256 268 279 302 306 296 284 290 283 284 289 294 294 271 245 250 243 232 238 215 184 176 183 185 178 178 174 176 176 175 175 179 175 177 169 150 167 152 142 142 137 136 129 107 83 75 51 42
261 264 267 271 268 269 263 261 257 259 266 270 272 271 265 255 254 259 249 233 232 203 178 176 181 186 179 177 176 179 177 173 173 170 178 170 164 162 143 135 121 113 108 107 100 88 81 64 48
315 298 283 261 245 238 250 253 242 244 247 251 251 252 252 248 247 247 245 230 223 216 189 177 179 185 184 181 179 180 177 173 170 170 180 174 165 153 139 134 126 120 118 106 94 87 80 69 31
224 244 250 238 216 217 219 255 255 242 226 233 239 243 244 241 237 239 239 230 221 221 208 188 179 182 185 184 179 177 177 174 173 172 177 173 162 151 137 129 126 122 112 102 91 81 81 67 31
208 229 235 238 180 194 213 254 260 270 254 241 238 237 239 240 235 233 233 229 219 213 211 195 176 178 183 181 174 170 174 175 172 170 169 168 159 146 132 125 124 118 105 99 96 65 71 65 21
204 221 237 235 171 202 240 257 266 278 277 261 253 252 248 243 239 235 232 230 225 217 209 196 180 178 177 171 164 162 173 178 171 164 160 157 146 136 128 127 123 116 111 108 107 107 79 61 359
310 311 300 302 324 309 275 274 270 266 262 256 249 245 247 248 247 243 240 238 233 223 214 203 188 180 175 172 173 174 177 169 158 152 147 141 136 134 133 130 125 125 127 132 130 120 104 55 1
269 281 283 293 303 304 287 280 272 257 251 247 247 245 243 245 245 242 238 236 237 232 218 209 195 183 178 177 175 167 146 126 111 112 118 127 132 135 138 134 133 128 123 114 110 109 111 82 37
245 255 272 292 323 298 280 283 258 248 235 235 238 241 243 244 244 244 239 234 231 232 224 214 203 190 179 166 152 131 111 99 104 111 115 123 129 132 135 133 129 126 123 121 115 112 115 131 81
247 257 272 291 295 290 312 297 276 273 264 232 222 224 232 240 243 243 245 243 233 227 223 216 204 194 178 165 161 162 168 162 160 141 126 120 124 131 132 130 127 122 120 118 116 110 112 117 124
235 41 344 296 292 294 255 257 275 233 246 238 221 214 221 232 239 244 244 244 245 233 219 211 204 194 178 168 167 170 167 141 132 130 130 127 127 127 128 127 124 122 120 116 112 107 99 104 109
155 65 264 251 282 270 222 219 275 244 244 255 221 211 223 241 258 269 274 267 256 249 235 210 196 187 173 165 165 168 159 147 146 147 144 140 136 130 126 126 122 119 119 119 121 116 98 95 94
181 190 223 200 221 250 233 226 253 259 300 305 279 287 302 302 302 311 309 300 277 253 234 217 191 178 165 161 164 165 156 154 155 153 151 148 146 143 138 132 124 120 118 118 114 109 108 104 103
189 204 222 247 261 291 257 242 255 240 237 221 214 227 264 283 298 301 302 301 285 261 227 212 187 170 160 159 160 154 147 151 153 152 152 151 149 145 138 131 125 123 123 122 116 118 129 130 158
172 217 294 334 308 284 258 266 284 250 243 228 213 221 239 249 270 282 290 295 286 265 229 207 180 164 156 152 148 145 145 146 148 147 144 141 140 140 133 128 128 127 125 123 128 134 149 157 189
222 180 178 182 258 275 272 258 255 342 360 359 329 289 274 280 286 284 289 295 288 272 244 201 173 157 147 144 142 141 139 139 141 141 141 140 139 135 131 129 128 126 124 128 135 138 130 134 214
199 200 199 217 252 266 287 268 334 2 358 344 324 306 299 301 296 291 285 289 298 288 250 192 158 143 137 133 130 132 132 134 134 135 135 135 134 134 131 130 129 128 129 132 134 142 146 196 265
194 198 189 204 234 229 266 272 296 332 349 338 325 317 308 290 280 279 283 280 287 280 215 159 141 132 128 126 126 128 129 131 131 131 131 131 130 127 126 126 125 125 123 122 125 131 151 239 268
Height
1504 1505 1506 1507 1508 1507 1502 1488 1475 1473 1475 1475 1476 1478 1479 1480 1484 1495 1493 1492 1492 1493 1496 1499 1501 1504 1506 1508 1510 1512 1513 1514 1516 1517 1518 1519 1519 1520 1520 1521 1521 1522 1523 1524 1526 1527 1529 1530 1531
1502 1504 1506 1505 1506 1509 1496 1480 1475 1475 1477 1479 1480 1482 1482 1481 1483 1488 1491 1492 1492 1493 1496 1498 1501 1504 1506 1508 1510 1512 1513 1514 1515 1517 1518 1519 1520 1521 1521 1521 1522 1523 1524 1525 1527 1528 1530 1531 1532
1500 1502 1505 1501 1501 1502 1490 1472 1470 1473 1478 1482 1483 1482 1482 1482 1484 1487 1490 1492 1492 1493 1496 1498 1501 1504 1506 1508 1510 1511 1513 1514 1515 1517 1518 1520 1521 1521 1522 1522 1523 1524 1525 1526 1527 1529 1531 1532 1533
1499 1502 1501 1499 1495 1486 1481 1474 1471 1475 1480 1482 1482 1481 1481 1483 1485 1487 1490 1492 1493 1494 1495 1499 1501 1504 1506 1508 1510 1511 1512 1514 1515 1517 1519 1520 1522 1522 1523 1523 1524 1525 1526 1527 1528 1530 1531 1532 1533
1498 1498 1498 1496 1489 1481 1474 1471 1472 1476 1479 1480 1482 1480 1481 1483 1485 1487 1490 1493 1493 1494 1495 1499 1501 1504 1506 1508 1510 1511 1512 1514 1516 1517 1519 1521 1522 1523 1524 1525 1525 1526 1527 1528 1529 1530 1532 1533 1533
1497 1493 1494 1493 1484 1477 1473 1470 1472 1477 1479 1479 1481 1481 1482 1483 1485 1488 1491 1493 1495 1495 1496 1499 1501 1504 1506 1508 1509 1511 1512 1514 1516 1517 1519 1521 1523 1524 1525 1525 1526 1527 1528 1529 1530 1531 1532 1533 1534
1492 1489 1488 1483 1479 1474 1469 1467 1470 1476 1479 1479 1480 1481 1482 1483 1485 1488 1491 1494 1495 1495 1496 1499 1501 1503 1505 1507 1509 1511 1512 1514 1515 1517 1519 1521 1523 1524 1525 1526 1527 1528 1529 1530 1531 1532 1533 1533 1534
1487 1485 1482 1480 1478 1473 1465 1464 1467 1473 1477 1479 1479 1480 1482 1484 1485 1488 1491 1494 1495 1495 1495 1498 1500 1502 1504 1506 1508 1510 1512 1514 1515 1517 1519 1521 1522 1524 1525 1526 1528 1529 1530 1530 1531 1532 1533 1534 1534
1486 1486 1481 1477 1475 1471 1465 1465 1467 1471 1476 1478 1478 1481 1483 1484 1486 1487 1490 1493 1494 1495 1495 1496 1498 1501 1503 1506 1508 1510 1512 1513 1515 1516 1518 1520 1522 1524 1525 1526 1528 1529 1530 1530 1531 1532 1533 1533 1534
1482 1483 1477 1471 1469 1468 1465 1465 1467 1471 1475 1477 1478 1480 1481 1483 1485 1486 1488 1490 1492 1494 1496 1496 1497 1500 1502 1504 1506 1508 1510 1512 1514 1515 1518 1520 1521 1523 1524 1526 1527 1528 1529 1530 1531 1532 1532 1532 1533
1477 1476 1473 1471 1469 1468 1468 1467 1468 1471 1474 1475 1477 1478 1479 1481 1484 1485 1486 1488 1489 1491 1494 1496 1497 1498 1500 1502 1504 1506 1508 1510 1512 1514 1517 1519 1521 1522 1523 1525 1526 1527 1528 1529 1530 1531 1531 1532 1532
1473 1471 1471 1470 1470 1470 1471 1471 1471 1471 1473 1474 1474 1475 1476 1478 1480 1482 1484 1486 1487 1487 1490 1493 1495 1497 1498 1500 1502 1504 1506 1508 1511 1513 1515 1518 1519 1521 1523 1524 1525 1526 1527 1528 1529 1530 1530 1531 1531
1471 1470 1469 1469 1470 1472 1473 1474 1474 1472 1472 1472 1472 1472 1474 1476 1478 1480 1482 1483 1485 1485 1486 1489 1492 1494 1496 1498 1500 1502 1504 1506 1509 1511 1514 1516 1517 1519 1521 1523 1524 1525 1526 1527 1528 1528 1529 1529 1529
1469 1470 1470 1469 1470 1471 1473 1473 1475 1471 1471 1471 1470 1469 1470 1472 1474 1476 1478 1480 1481 1483 1483 1485 1488 1491 1493 1495 1497 1499 1501 1504 1506 1508 1511 1513 1515 1518 1519 1521 1523 1524 1525 1525 1526 1526 1527 1527 1527
1471 1472 1471 1468 1468 1470 1472 1470 1468 1466 1467 1467 1466 1466 1467 1468 1470 1472 1474 1475 1477 1479 1481 1482 1484 1487 1489 1491 1493 1496 1498 1501 1503 1505 1508 1511 1513 1515 1517 1519 1520 1522 1523 1524 1524 1525 1525 1525 1525
1472 1474 1473 1461 1461 1464 1472 1468 1461 1458 1459 1460 1461 1461 1462 1463 1464 1466 1468 1470 1472 1474 1476 1478 1479 1482 1484 1487 1489 1492 1494 1497 1500 1502 1505 1508 1510 1513 1515 1517 1518 1519 1521 1522 1522 1523 1523 1523 1522
1471 1472 1467 1459 1456 1458 1464 1462 1457 1454 1453 1453 1454 1455 1456 1456 1457 1459 1461 1463 1465 1468 1471 1472 1474 1476 1479 1482 1485 1487 1490 1493 1496 1498 1501 1504 1507 1509 1511 1514 1516 1517 1518 1519 1520 1521 1521 1520 1520
1466 1465 1460 1457 1453 1456 1459 1456 1453 1452 1451 1450 1450 1450 1449 1449 1450 1452 1453 1455 1458 1461 1464 1466 1468 1471 1474 1477 1480 1482 1485 1488 1491 1494 1497 1500 1502 1505 1507 1510 1512 1514 1516 1517 1518 1518 1518 1518 1517
1461 1463 1462 1456 1452 1455 1455 1453 1450 1448 1446 1444 1443 1443 1442 1442 1443 1445 1446 1448 1450 1453 1456 1458 1460 1463 1467 1469 1472 1475 1479 1483 1486 1489 1492 1495 1498 1500 1503 1506 1509 1511 1513 1514 1515 1516 1516 1515 1514
1464 1466 1465 1461 1456 1456 1455 1448 1443 1439 1435 1434 1434 1434 1434 1435 1436 1437 1439 1441 1442 1445 1448 1451 1453 1456 1459 1462 1465 1469 1473 1477 1480 1484 1487 1490 1493 1496 1500 1502 1505 1507 1509 1511 1512 1513 1513 1512 1512
1466 1468 1467 1465 1461 1459 1457 1445 1431 1422 1421 1423 1425 1425 1426 1428 1429 1430 1432 1434 1435 1437 1440 1443 1447 1450 1452 1456 1459 1463 1466 1470 1474 1477 1481 1485 1489 1492 1496 1499 1501 1503 1506 1507 1509 1510 1510 1509 1508
1467 1462 1464 1466 1470 1466 1458 1458 1430 1421 1416 1414 1415 1417 1419 1421 1422 1424 1425 1427 1428 1430 1434 1436 1440 1443 1446 1449 1451 1454 1458 1461 1465 1469 1474 1479 1484 1488 1492 1495 1497 1500 1502 1504 1505 1506 1506 1506 1505
1464 1465 1467 1468 1470 1472 1463 1464 1432 1419 1416 1411 1409 1411 1413 1416 1417 1418 1420 1421 1422 1424 1426 1429 1433 1436 1439 1441 1443 1448 1452 1455 1459 1464 1470 1475 1480 1484 1487 1491 1493 1496 1499 1501 1502 1503 1503 1503 1502
1463 1468 1470 1470 1474 1478 1459 1457 1434 1417 1408 1405 1405 1407 1410 1412 1414 1414 1415 1416 1416 1418 1419 1421 1424 1428 1432 1434 1437 1442 1445 1448 1453 1457 1463 1469 1474 1479 1483 1487 1490 1493 1496 1498 1499 1500 1500 1500 1499
1466 1473 1475 1474 1475 1468 1446 1442 1427 1409 1403 1403 1405 1406 1408 1410 1411 1411 1411 1412 1412 1412 1413 1415 1417 1421 1425 1428 1432 1437 1439 1443 1447 1451 1457 1463 1469 1474 1478 1482 1486 1490 1492 1494 1496 1496 1497 1496 1496
1466 1469 1472 1471 1461 1446 1433 1431 1415 1402 1399 1400 1402 1404 1406 1407 1408 1409 1409 1408 1408 1408 1408 1409 1412 1415 1419 1424 1428 1432 1435 1439 1443 1448 1453 1459 1465 1470 1475 1479 1483 1487 1490 1492 1493 1494 1493 1493 1492
1465 1468 1464 1468 1465 1465 1444 1424 1408 1398 1397 1398 1400 1402 1403 1404 1405 1405 1405 1404 1403 1403 1403 1405 1407 1410 1415 1419 1424 1428 1431 1435 1439 1444 1450 1456 1462 1467 1472 1476 1481 1484 1487 1489 1490 1490 1490 1490 1489
1460 1463 1468 1475 1476 1465 1441 1425 1414 1400 1400 1399 1400 1400 1401 1401 1401 1401 1400 1399 1399 1398 1399 1400 1402 1406 1410 1415 1420 1424 1428 1432 1437 1441 1447 1453 1459 1464 1469 1475 1479 1482 1484 1486 1487 1487 1487 1486 1485
1462 1464 1464 1466 1464 1465 1452 1428 1400 1402 1401 1401 1401 1400 1399 1398 1397 1396 1395 1394 1394 1394 1395 1396 1398 1402 1407 1411 1416 1421 1425 1430 1434 1440 1445 1451 1457 1463 1468 1473 1477 1480 1482 1483 1484 1484 1484 1483 1482
1455 1457 1462 1469 1464 1457 1453 1430 1403 1402 1400 1401 1400 1399 1396 1394 1392 1390 1389 1389 1389 1390 1391 1393 1395 1399 1403 1408 1413 1418 1423 1427 1433 1438 1444 1451 1457 1463 1468 1472 1475 1478 1480 1480 1481 1481 1480 1479 1478